Wind_Speed
10 10 10 10 10 10 9 10 11 11 10 10 10 9 9 9 9 9 9 9 9 8 8 9 10 9 8 8 8 7 8 8 9 8 8 7 7 6 7 6 6 6 6
11 10 10 10 9 9 10 10 11 11 10 10 10 10 10 9 10 10 9 9 9 9 10 10 9 8 8 8 8 8 8 9 8 8 8 7 6 6 6 5 5 6 6
11 10 9 10 10 9 9 10 10 11 11 11 11 11 11 10 10 10 10 10 10 10 11 11 10 9 8 8 8 7 8 9 9 8 8 6 6 6 6 5 5 6 7
11 10 10 10 10 10 10 10 10 10 11 11 11 12 12 12 11 11 10 10 11 11 11 10 10 9 8 7 7 7 8 9 9 8 7 6 6 5 6 5 5 6 7
10 10 9 10 10 10 11 11 11 11 12 12 12 12 12 11 10 10 10 9 11 11 11 11 10 9 7 7 7 7 8 8 8 7 6 5 5 5 5 5 5 6 6
10 9 8 9 10 10 11 11 11 12 12 11 12 12 11 10 10 10 10 10 10 11 11 10 9 8 7 7 7 6 7 6 6 6 6 6 5 5 5 5 6 5 6
11 10 10 10 10 11 11 12 11 11 11 11 11 11 11 10 10 10 10 9 10 10 10 9 8 7 7 6 6 6 6 7 6 6 6 6 5 5 5 6 6 5 6
12 11 11 11 10 10 10 11 10 10 10 10 10 10 10 10 10 9 9 9 9 10 9 8 8 7 6 6 6 6 7 6 6 5 5 6 5 5 5 6 7 6 6
12 11 11 11 10 10 10 10 10 10 10 10 10 10 10 10 10 9 9 9 9 9 8 8 7 6 5 5 5 6 6 4 4 4 5 5 5 5 6 5 5 6 6
12 11 10 10 10 10 10 9 10 10 11 10 10 10 10 9 9 9 8 9 9 8 7 7 7 6 5 5 5 4 4 4 4 4 3 4 4 4 4 4 4 4 5
12 11 10 10 10 10 10 10 10 10 10 11 11 10 10 9 8 8 8 8 7 7 7 7 6 5 4 4 4 3 3 3 3 3 2 3 3 3 3 4 4 5 5
12 11 11 11 11 10 10 10 10 10 11 11 10 10 9 8 8 7 8 7 7 7 7 6 5 4 4 4 4 3 2 2 2 2 2 2 2 2 3 3 4 5 5
12 11 11 11 11 10 10 11 10 11 11 10 10 9 8 8 8 7 7 6 6 6 6 6 5 5 4 4 3 3 1 1 1 1 1 2 2 2 3 3 4 5 5
12 12 12 11 11 11 11 11 10 10 10 10 9 8 8 7 7 7 7 7 6 6 5 4 5 5 4 3 3 2 1 2 2 2 2 2 3 3 4 4 5 5 6
13 12 12 12 11 11 11 10 10 10 9 9 8 8 8 7 7 7 7 6 6 5 4 3 4 4 3 2 1 1 1 2 2 3 3 4 4 4 4 5 5 6 7
13 13 12 11 11 11 11 11 10 9 9 8 8 8 8 7 6 5 6 5 5 5 4 3 3 3 2 1 1 1 2 2 2 3 3 4 5 5 5 5 6 7 7
14 13 12 11 11 11 11 11 10 9 8 7 7 7 7 6 6 5 5 4 4 3 3 3 3 2 1 1 1 1 1 2 2 3 4 4 5 5 6 6 6 6 7
13 13 12 11 11 10 10 10 10 9 8 8 7 7 7 7 6 5 4 3 3 2 2 2 2 2 1 1 1 2 2 2 3 3 4 4 5 5 6 6 6 7 7
12 12 11 11 11 10 9 9 9 8 8 7 7 7 7 7 6 6 4 3 3 2 2 2 2 2 2 2 2 2 3 3 3 4 5 5 6 6 6 7 7 7 8
12 11 11 11 10 10 9 9 8 8 7 7 6 6 6 6 6 6 5 4 3 3 3 2 2 2 2 3 3 3 4 4 5 6 6 6 7 7 7 7 8 8 8
11 10 10 10 10 9 9 8 8 7 7 7 6 6 6 5 5 6 5 4 4 4 4 3 3 3 3 4 5 5 5 5 6 6 6 6 7 8 8 8 8 9 9
9 9 9 9 9 9 8 8 8 7 7 6 6 5 5 5 5 5 4 4 4 4 4 4 4 4 4 5 5 6 6 6 6 7 7 7 7 7 8 8 9 9 10
8 7 7 7 8 7 7 7 7 7 7 6 6 5 5 5 5 5 5 4 5 5 5 5 5 5 6 5 5 6 7 7 7 7 7 7 8 8 8 9 9 10 11
6 6 6 6 6 6 6 6 6 6 6 6 6 5 5 5 5 5 6 6 6 6 6 6 6 7 7 6 6 6 7 8 9 9 8 8 9 9 10 10 10 10 11
6 5 6 5 5 5 5 5 5 6 6 6 6 6 5 5 6 6 6 7 7 7 7 7 7 7 7 7 7 7 8 9 10 10 9 9 9 10 10 11 11 11 12
6 5 5 5 4 4 4 5 5 6 6 6 6 6 6 6 6 6 6 6 7 7 7 7 7 7 7 7 7 8 9 10 10 10 10 10 11 11 11 11 12 12 13
Wind_Direction
112 111 108 109 111 114 117 114 112 111 109 107 105 109 114 112 110 109 112 118 123 124 126 128 122 124 132 140 144 151 157 159 167 158 152 159 164 158 159 166 180 182 181
110 112 111 112 114 113 113 116 115 113 110 106 104 107 114 113 114 112 110 113 119 123 126 128 124 123 133 144 144 144 152 158 156 155 156 164 170 163 163 167 177 182 182
110 108 110 113 115 116 118 117 115 113 109 105 103 106 108 112 114 113 113 111 114 124 127 128 128 127 137 142 142 139 136 145 145 157 162 169 171 172 175 174 174 179 174
107 109 112 114 116 121 120 116 113 111 110 107 104 106 106 107 111 116 116 113 116 120 124 126 126 125 127 123 126 133 135 134 141 151 158 162 166 174 180 180 177 178 169
107 110 113 116 116 117 117 113 113 112 111 109 108 108 107 107 109 111 112 116 118 120 121 122 123 124 126 122 124 130 133 133 139 148 154 159 170 179 179 179 176 180 167
103 107 110 114 116 115 115 115 116 114 112 111 111 110 109 108 108 111 109 114 118 119 123 121 122 124 128 127 133 135 137 133 141 155 159 167 175 179 188 191 188 185 174
101 102 106 107 108 110 112 114 115 115 113 111 111 110 110 110 109 109 111 112 114 117 116 119 126 127 130 131 135 140 139 139 147 157 161 169 179 179 182 197 197 194 178
100 101 103 105 103 103 108 112 114 116 114 111 112 109 110 111 115 115 116 119 118 117 113 116 120 131 135 133 136 142 145 148 146 149 172 175 174 182 190 190 192 188 187
97 99 101 100 97 99 103 105 105 109 114 111 109 109 108 110 114 118 116 117 121 119 116 115 116 121 124 131 140 147 147 147 141 141 153 171 180 185 186 186 191 191 191
92 94 96 94 94 100 101 102 102 104 110 112 111 111 109 109 112 118 118 118 121 123 119 116 117 116 113 128 137 135 131 132 125 135 141 152 164 175 191 194 198 202 208
90 92 93 92 94 98 94 93 99 96 108 111 111 115 116 115 113 118 121 117 118 121 119 119 118 115 118 127 119 121 135 138 124 132 143 148 176 187 203 209 218 220 220
88 89 93 92 91 92 90 87 90 95 101 104 106 106 107 111 111 114 116 112 112 114 119 121 119 115 112 125 122 124 150 161 144 148 157 167 179 193 204 223 234 230 233
86 87 90 91 90 91 92 89 89 93 93 94 98 102 105 108 108 102 101 104 112 116 118 115 104 111 117 126 130 125 137 179 192 167 183 193 207 218 238 252 255 246 244
85 87 88 88 87 88 90 89 90 94 94 92 95 99 102 104 106 100 96 93 100 113 108 107 110 109 115 122 136 149 174 211 223 206 210 220 236 247 256 265 266 260 255
81 84 87 87 86 87 88 89 91 92 94 94 93 93 93 94 97 100 96 93 86 93 113 115 107 105 103 108 139 191 221 233 226 235 235 236 245 253 256 262 271 267 262
78 80 84 86 84 84 86 89 90 90 91 91 92 88 89 90 95 97 86 85 82 83 84 92 92 85 79 85 120 212 238 250 252 261 260 267 264 261 258 265 270 264 266
76 77 80 84 84 83 84 84 85 86 83 81 81 81 84 81 84 87 81 82 82 85 84 70 65 61 31 1 312 298 289 278 266 268 271 278 281 268 265 270 272 270 272
73 73 75 79 81 80 80 78 77 78 77 74 71 70 72 73 73 78 80 81 77 80 75 57 40 21 358 337 330 324 312 305 304 298 296 294 288 278 269 270 270 273 276
69 71 70 73 77 76 75 73 73 73 73 72 66 61 60 63 62 62 64 64 63 51 39 30 11 350 334 332 340 337 326 305 304 304 300 296 293 291 283 276 276 278 280
66 67 66 68 70 71 73 72 70 69 70 68 65 59 56 58 56 53 55 49 41 25 14 3 349 329 309 327 333 331 329 318 308 299 298 296 295 292 289 287 287 287 288
61 63 63 65 65 67 69 70 69 67 65 63 62 59 56 53 47 40 36 37 32 23 16 360 350 341 323 320 320 324 323 318 314 307 301 296 293 291 291 292 289 289 291
53 56 60 61 61 61 63 65 65 63 59 54 50 49 48 40 35 28 18 19 27 22 13 356 346 344 335 321 315 316 319 317 314 309 306 304 302 304 301 298 296 293 296
47 52 57 59 59 57 56 58 57 55 51 44 39 37 34 30 22 16 17 9 3 2 357 353 344 339 338 327 317 314 314 315 316 313 304 300 298 300 302 302 300 299 299
38 42 48 52 55 54 52 51 48 43 36 31 28 24 19 14 9 3 1 356 349 346 346 344 345 339 332 328 323 317 316 318 316 313 304 296 293 295 297 299 298 298 301
28 34 38 38 43 46 45 42 35 28 22 21 18 14 9 6 359 352 349 346 343 343 343 342 342 339 336 333 329 325 321 321 319 315 311 305 299 295 294 295 297 296 296
25 29 28 24 30 34 33 31 26 20 16 12 11 11 9 5 358 347 338 334 333 334 333 332 331 334 334 330 330 328 323 321 319 318 316 313 309 306 302 302 301 301 300
Height
5870 5870 5870 5871 5871 5872 5872 5872 5872 5872 5873 5873 5872 5872 5872 5873 5873 5873 5873 5874 5874 5875 5875 5875 5876 5876 5877 5878 5879 5880 5881 5882 5883 5884 5885 5886 5887 5888 5889 5890 5891 5892 5892
5871 5871 5871 5872 5872 5873 5873 5873 5873 5873 5874 5874 5873 5873 5873 5873 5874 5875 5875 5875 5875 5876 5876 5877 5877 5877 5878 5879 5880 5881 5882 5883 5884 5885 5886 5888 5888 5889 5890 5891 5891 5892 5893
5872 5872 5873 5873 5873 5874 5874 5874 5874 5874 5874 5874 5874 5874 5874 5875 5875 5876 5876 5876 5877 5877 5878 5878 5879 5879 5879 5880 5881 5882 5883 5883 5885 5886 5887 5888 5889 5890 5891 5891 5892 5892 5893
5874 5874 5874 5874 5874 5875 5875 5875 5875 5876 5876 5876 5876 5876 5876 5876 5877 5877 5878 5878 5878 5878 5879 5879 5880 5881 5881 5882 5882 5883 5884 5885 5886 5887 5888 5889 5890 5890 5891 5891 5892 5893 5893
5875 5876 5876 5876 5876 5876 5876 5876 5876 5877 5877 5877 5877 5878 5878 5878 5878 5879 5879 5879 5879 5879 5880 5881 5882 5882 5883 5883 5884 5884 5885 5886 5887 5888 5889 5889 5890 5891 5891 5892 5892 5892 5893
5877 5877 5877 5877 5877 5877 5877 5877 5878 5878 5878 5878 5879 5879 5879 5879 5880 5880 5880 5880 5880 5881 5882 5883 5883 5883 5884 5885 5885 5886 5886 5887 5888 5889 5889 5890 5890 5891 5891 5892 5892 5893 5894
5879 5879 5879 5879 5879 5879 5879 5879 5879 5879 5880 5880 5880 5881 5881 5881 5881 5881 5881 5882 5882 5882 5883 5884 5884 5885 5885 5886 5886 5887 5887 5888 5888 5889 5889 5890 5891 5891 5891 5892 5892 5892 5894
5881 5881 5881 5881 5881 5881 5881 5880 5880 5881 5881 5881 5882 5882 5882 5882 5883 5883 5883 5883 5884 5884 5885 5885 5885 5886 5886 5887 5887 5888 5888 5888 5889 5889 5889 5890 5891 5891 5892 5892 5892 5893 5894
5883 5883 5883 5883 5883 5883 5882 5882 5882 5882 5882 5883 5883 5884 5884 5884 5884 5884 5885 5885 5885 5886 5886 5887 5887 5887 5887 5888 5888 5889 5889 5889 5889 5890 5890 5889 5890 5891 5892 5892 5892 5893 5893
5885 5885 5885 5885 5885 5884 5884 5884 5883 5883 5883 5884 5884 5885 5885 5885 5885 5886 5886 5886 5886 5887 5887 5888 5888 5888 5889 5889 5889 5889 5889 5890 5890 5890 5890 5890 5891 5891 5892 5892 5892 5893 5893
5888 5887 5887 5887 5886 5886 5886 5885 5885 5885 5885 5885 5885 5886 5886 5887 5887 5887 5887 5887 5888 5888 5888 5888 5889 5889 5889 5890 5890 5890 5890 5890 5890 5890 5890 5891 5891 5891 5891 5891 5892 5892 5892
5890 5889 5889 5889 5889 5888 5888 5887 5887 5887 5887 5887 5887 5887 5888 5888 5888 5888 5888 5888 5889 5889 5889 5889 5889 5890 5890 5890 5890 5890 5890 5890 5890 5890 5890 5891 5891 5891 5891 5891 5891 5891 5892
5892 5892 5891 5891 5891 5890 5890 5889 5889 5889 5889 5889 5889 5889 5889 5890 5890 5890 5889 5889 5889 5889 5889 5890 5890 5890 5891 5890 5891 5891 5891 5890 5891 5891 5891 5891 5891 5891 5891 5891 5891 5891 5891
5895 5894 5894 5893 5893 5892 5892 5892 5891 5891 5891 5891 5891 5890 5891 5891 5891 5891 5891 5891 5891 5891 5891 5891 5891 5891 5891 5891 5891 5891 5891 5891 5891 5891 5891 5891 5891 5891 5890 5890 5890 5890 5890
5897 5897 5896 5896 5895 5895 5894 5894 5893 5893 5893 5893 5893 5892 5892 5893 5893 5892 5892 5892 5892 5892 5892 5892 5892 5892 5892 5892 5891 5891 5891 5891 5891 5890 5890 5890 5890 5890 5890 5889 5889 5889 5888
5900 5899 5899 5898 5898 5897 5896 5896 5896 5895 5895 5895 5894 5894 5894 5894 5894 5894 5894 5894 5893 5893 5893 5893 5893 5892 5892 5892 5892 5891 5891 5891 5890 5890 5890 5889 5889 5889 5889 5888 5888 5888 5887
5903 5902 5901 5900 5900 5899 5899 5898 5898 5897 5897 5896 5896 5896 5895 5895 5895 5895 5895 5895 5894 5894 5894 5893 5893 5893 5893 5892 5892 5891 5891 5890 5890 5890 5889 5889 5888 5888 5887 5887 5886 5886 5886
5906 5905 5904 5903 5902 5901 5901 5900 5900 5899 5899 5898 5897 5897 5897 5896 5896 5896 5896 5895 5895 5895 5894 5894 5894 5893 5893 5892 5892 5891 5890 5890 5890 5889 5888 5888 5887 5887 5886 5886 5885 5885 5884
5909 5907 5906 5905 5904 5903 5902 5902 5901 5901 5900 5900 5899 5899 5898 5898 5897 5897 5896 5896 5896 5895 5895 5894 5894 5893 5893 5892 5891 5891 5890 5890 5889 5888 5888 5887 5886 5885 5885 5884 5883 5883 5882
5911 5910 5909 5907 5906 5905 5904 5903 5903 5902 5902 5901 5900 5900 5899 5898 5898 5897 5897 5896 5896 5896 5895 5894 5894 5893 5892 5892 5891 5891 5890 5889 5888 5887 5887 5886 5885 5884 5883 5883 5882 5881 5880
5913 5912 5911 5910 5909 5908 5906 5906 5905 5904 5903 5902 5902 5901 5900 5899 5899 5898 5897 5897 5896 5896 5895 5894 5894 5893 5892 5891 5891 5890 5889 5888 5887 5886 5885 5885 5884 5883 5882 5881 5880 5879 5879
5915 5914 5913 5912 5911 5909 5908 5907 5906 5905 5904 5904 5903 5902 5901 5900 5899 5898 5897 5897 5896 5895 5895 5894 5893 5892 5892 5891 5890 5889 5888 5888 5886 5885 5884 5883 5882 5881 5880 5879 5878 5877 5876
5917 5916 5915 5914 5912 5911 5910 5909 5908 5907 5906 5904 5903 5902 5901 5900 5899 5898 5898 5897 5896 5895 5894 5894 5893 5892 5891 5890 5889 5889 5888 5887 5885 5884 5883 5882 5881 5880 5879 5877 5876 5875 5874
5918 5917 5916 5915 5914 5913 5911 5910 5909 5908 5906 5905 5904 5903 5901 5900 5899 5898 5897 5896 5896 5895 5894 5893 5892 5891 5890 5889 5888 5887 5887 5885 5884 5883 5882 5880 5879 5878 5877 5876 5874 5873 5872
5919 5918 5916 5916 5915 5913 5912 5911 5910 5908 5907 5906 5904 5903 5901 5900 5899 5898 5897 5896 5895 5894 5893 5892 5891 5890 5889 5888 5887 5886 5885 5884 5882 5881 5880 5878 5877 5876 5875 5874 5872 5871 5869
5919 5918 5917 5916 5915 5914 5913 5912 5910 5909 5908 5906 5905 5903 5902 5900 5899 5898 5896 5895 5894 5893 5892 5891 5890 5889 5888 5887 5886 5885 5883 5882 5881 5879 5878 5876 5875 5874 5872 5871 5870 5868 5867